Location: Fort Wayne
(41.1310°N, 85.1290°W)
Time: 10:21:55
(UTC-04:00)

Amateur Radio Satellites - All Passes

Search period start: 28 March 2015 09:51
Search period end: 29 March 2015 09:51
Location: Fort Wayne, 41.1310°N, 85.1290°W

Satellite Date Start Highest point End Downlink Frequencies (MHz)
Time Altitude Azimuth
AAUSAT CUBESAT 2 28 Mar 10:02:30 10:05:44 21° 93° (E) 10:09:02 437.432
SEEDS 28 Mar 10:03:27 10:07:17 31° 96° (E) 10:11:07 437.485
CINEMA 3 28 Mar 10:06:25 10:09:17 17° 92° (E) 10:12:22 145.822/145.860
PHONESAT 2.4 28 Mar 10:13:15 10:16:47 83° 182° (S) 10:20:21 2401.200-2431.200
DOVE 4 28 Mar 10:15:37 10:19:41 40° 98° (E) 10:23:58 437.250
Oscar 11 28 Mar 10:17:53 10:20:22 15° 90° (E) 10:23:02 145.826/435.025
GOMX 1 28 Mar 10:20:04 10:24:18 69° 101° (E) 10:28:44 467.674
ANTELSAT 28 Mar 10:21:18 10:23:48 16° 65° (ENE) 10:26:30 437.575/2403.000
DANDE 28 Mar 10:26:28 10:29:32 20° 263° (W) 10:33:05 436.750
UWE-3 28 Mar 10:26:38 10:28:25 12° 89° (E) 10:30:27 435.000/436.395/437.385
COMPASS 1 28 Mar 10:27:50 10:31:58 48° 99° (E) 10:36:05 437.405
CUBEBUG 2 28 Mar 10:27:58 10:30:38 16° 91° (E) 10:33:31 437.445
QB50P1 28 Mar 10:37:08 10:38:40 12° 64° (ENE) 10:40:24 145.935-145.965
ZACube-1 28 Mar 10:38:10 10:40:14 13° 89° (E) 10:42:34 437.345
DUCHIFAT 1 28 Mar 10:39:39 10:41:20 12° 64° (ENE) 10:43:13 145.980
BEESAT 2 28 Mar 10:40:58 10:42:59 14° 110° (ESE) 10:45:11 435.950
QB50P2 28 Mar 10:50:13 10:52:53 17° 66° (ENE) 10:55:42 145.880/145.840
CANX-2 28 Mar 10:53:28 10:57:41 53° 286° (WNW) 11:01:52 2200.000
HO-68 28 Mar 11:00:14 11:07:27 76° 288° (WNW) 11:14:36 435.675
BRITE-PL 28 Mar 11:05:12 11:08:38 25° 290° (WNW) 11:12:06 437.365/2234.400
CUTE 1.7 + AOD 2 28 Mar 11:07:44 11:11:48 40° 288° (WNW) 11:15:50 437.475
UNISAT 6 28 Mar 11:15:31 11:19:42 60° 75° (ENE) 11:23:58 437.425
BEESAT 3 28 Mar 11:17:38 11:21:28 40° 117° (ESE) 11:25:22 437.485
POPSAT HIP 1 28 Mar 11:18:06 11:21:51 32° 71° (ENE) 11:25:39 437.405
VERMONT LUNAR 28 Mar 11:22:24 11:25:35 40° 200° (SSW) 11:28:46 437.305
UKube-1 28 Mar 11:22:54 11:26:37 28° 96° (E) 11:30:22 .
BUGSAT 1 28 Mar 11:24:50 11:28:21 28° 70° (ENE) 11:31:55 437.445
DELFI C3 28 Mar 11:25:10 11:29:16 67° 101° (E) 11:33:20 145.870
TIGRISAT 28 Mar 11:26:23 11:30:36 77° 76° (ENE) 11:34:55 435.000
NANOSAT C BR1 28 Mar 11:29:02 11:33:00 43° 72° (ENE) 11:37:01 145.865
DX 1 28 Mar 11:31:05 11:35:05 36° 97° (E) 11:39:07 434.975-435.025
POLYITAN 1 28 Mar 11:31:57 11:35:59 47° 73° (ENE) 11:40:04 437.675
AAUSAT CUBESAT 2 28 Mar 11:37:39 11:41:26 31° 289° (WNW) 11:45:10 437.432
HUMSAT D 28 Mar 11:38:42 11:42:27 30° 96° (E) 11:46:16 437.325/437.525
SEEDS 28 Mar 11:39:33 11:42:58 23° 291° (WNW) 11:46:16 437.485
CINEMA 3 28 Mar 11:42:34 11:46:43 43° 287° (WNW) 11:51:01 145.822/145.860
AIST 2 28 Mar 11:43:39 11:46:58 23° 113° (ESE) 11:50:25 435.215
PHONESAT 2.4 28 Mar 11:51:36 11:55:04 52° 196° (SSW) 11:58:32 2401.200-2431.200
Oscar 11 28 Mar 11:52:40 11:56:53 47° 287° (WNW) 12:01:03 145.826/435.025
DOVE 4 28 Mar 11:54:16 11:57:16 18° 292° (WNW) 12:00:14 437.250
ANTELSAT 28 Mar 11:56:10 12:00:16 47° 261° (W) 12:04:26 437.575/2403.000
FUNcube-1 28 Mar 12:00:16 12:04:38 77° 285° (WNW) 12:09:05 145.935
GOMX 1 28 Mar 12:00:44 12:02:03 11° 295° (WNW) 12:03:09 467.674
UWE-3 28 Mar 12:01:03 12:05:24 60° 285° (WNW) 12:09:49 435.000/436.395/437.385
CUBEBUG 2 28 Mar 12:03:23 12:07:36 47° 287° (WNW) 12:11:56 437.445
COMPASS 1 28 Mar 12:04:44 12:07:19 15° 294° (WNW) 12:09:45 437.405
VELOX 1 28 Mar 12:05:39 12:09:44 37° 97° (E) 12:13:51 145.980
AISAT 28 Mar 12:09:39 12:13:52 43° 99° (E) 12:18:04 437.250
QB50P1 28 Mar 12:09:54 12:14:06 63° 259° (W) 12:18:17 145.935-145.965
CUBEBUG 1 28 Mar 12:10:21 12:13:25 19° 92° (E) 12:16:35 437.445
DUCHIFAT 1 28 Mar 12:12:34 12:16:44 60° 259° (W) 12:20:54 145.980
ZACube-1 28 Mar 12:12:43 12:17:00 55° 286° (WNW) 12:21:21 437.345
BEESAT 2 28 Mar 12:16:40 12:20:43 55° 306° (NW) 12:24:50 435.950
QB50P2 28 Mar 12:24:29 12:28:30 42° 261° (W) 12:32:32 145.880/145.840
ESTCUBE 1 28 Mar 12:34:44 12:39:00 40° 98° (E) 12:43:15 437.505/2401.250
50 SAT 28 Mar 12:39:48 12:43:51 79° 284° (WNW) 12:47:54 437.505
HO-68 28 Mar 12:50:07 12:54:09 15° 306° (NW) 12:57:50 435.675
POPSAT HIP 1 28 Mar 12:54:36 12:57:50 21° 267° (W) 13:00:59 437.405
UNISAT 6 28 Mar 12:55:30 12:57:01 11° 272° (W) 12:58:18 437.425
BEESAT 3 28 Mar 12:56:27 12:59:42 22° 315° (NW) 13:02:55 437.485
UKube-1 28 Mar 12:59:05 13:02:42 26° 292° (WNW) 13:06:13 .
BUGSAT 1 28 Mar 13:00:26 13:03:51 24° 266° (W) 13:07:11 437.445
VERMONT LUNAR 28 Mar 13:02:00 13:02:48 11° 213° (SSW) 13:03:29 437.305
DELFI C3 28 Mar 13:02:47 13:03:58 11° 296° (WNW) 13:04:54 145.870
NANOSAT C BR1 28 Mar 13:06:29 13:09:08 16° 269° (W) 13:11:37 145.865
DX 1 28 Mar 13:07:54 13:11:08 20° 293° (WNW) 13:14:16 434.975-435.025
POLYITAN 1 28 Mar 13:09:52 13:12:16 14° 270° (W) 13:14:27 437.675
HUMSAT D 28 Mar 13:14:42 13:18:06 23° 291° (WNW) 13:21:26 437.325/437.525
AIST 2 28 Mar 13:21:26 13:25:24 36° 310° (NW) 13:29:24 435.215
PHONESAT 2.4 28 Mar 13:30:44 13:33:00 16° 211° (SSW) 13:35:12 2401.200-2431.200
ITAMSAT 1 28 Mar 13:36:01 13:37:41 12° 59° (ENE) 13:39:37 435.822/435.867
VELOX 1 28 Mar 13:42:49 13:46:06 20° 293° (WNW) 13:49:17 145.980
CUBEBUG 1 28 Mar 13:45:57 13:49:57 36° 289° (WNW) 13:53:54 437.445
AISAT 28 Mar 13:47:08 13:50:11 18° 294° (WNW) 13:53:07 437.250
TISAT 1 28 Mar 13:53:49 13:57:57 58° 100° (E) 14:02:06 437.305
SPROUT 28 Mar 13:59:32 14:03:51 82° 104° (ESE) 14:08:07 437.525
YUBILEINY 28 Mar 14:05:14 14:12:57 37° 86° (E) 14:20:52 435.215
SWISSCUBE 28 Mar 14:06:56 14:09:18 14° 89° (E) 14:11:54 437.505
Oscar 19 28 Mar 14:08:33 14:13:37 68° 73° (ENE) 14:18:44 437.125/150
BEESAT 28 Mar 14:10:09 14:12:29 14° 89° (E) 14:15:03 436.000
ESTCUBE 1 28 Mar 14:12:18 14:15:38 20° 294° (WNW) 14:18:49 437.505/2401.250
Gurwin Techsat 1B 28 Mar 14:15:22 14:19:18 22° 65° (ENE) 14:23:21 435.225
O/OREOS (USA 219) 28 Mar 14:40:13 14:44:27 36° 61° (ENE) 14:48:39 437.305
ITUPSAT 1 28 Mar 14:54:38 14:59:08 39° 98° (E) 15:03:36 437.325
AO-7 28 Mar 14:59:04 15:04:39 21° 53° (NE) 15:10:32 29.400- 29.500
ITAMSAT 1 28 Mar 15:11:15 15:16:29 86° 77° (ENE) 15:21:45 435.822/435.867
PCSat 28 Mar 15:27:56 15:32:47 36° 111° (ESE) 15:37:45 145.827
TISAT 1 28 Mar 15:31:23 15:33:20 13° 296° (WNW) 15:35:06 437.305
SWISSCUBE 28 Mar 15:42:56 15:47:40 61° 286° (WNW) 15:52:22 437.505
BEESAT 28 Mar 15:46:06 15:50:50 62° 287° (WNW) 15:55:32 436.000
HORYU 2 28 Mar 15:46:57 15:50:55 34° 70° (ENE) 15:54:58 437.375
Oscar 19 28 Mar 15:50:50 15:53:34 14° 272° (W) 15:56:03 437.125/150
Gurwin Techsat 1B 28 Mar 15:53:48 15:58:57 50° 261° (W) 16:04:08 435.225
YUBILEINY 28 Mar 16:01:08 16:09:37 49° 286° (WNW) 16:18:05 435.215
JAS-2 28 Mar 16:06:15 16:12:19 35° 64° (ENE) 16:19:02 435.910
KKS-1 28 Mar 16:12:25 16:16:43 48° 99° (E) 16:21:02 437.445
O/OREOS (USA 219) 28 Mar 16:20:10 16:23:39 21° 258° (WSW) 16:27:01 437.305
AIST 1 28 Mar 16:20:41 16:24:59 62° 81° (E) 16:29:13
ITUPSAT 1 28 Mar 16:33:02 16:36:49 23° 294° (WNW) 16:40:30 437.325
STARS 28 Mar 16:46:57 16:51:22 75° 102° (ESE) 16:55:46 437.465
AO-7 28 Mar 16:48:09 16:56:29 88° 72° (ENE) 17:04:50 29.400- 29.500
ITAMSAT 1 28 Mar 16:55:15 16:56:47 11° 274° (W) 16:57:58 435.822/435.867
PCSat 28 Mar 17:11:19 17:16:15 34° 309° (NW) 17:21:09 145.827
HORYU 2 28 Mar 17:24:11 17:27:42 22° 267° (W) 17:31:07 437.375
Cubesat XI-IV 28 Mar 17:28:31 17:29:56 11° 59° (ENE) 17:31:39 437.490
CUTE-I 28 Mar 17:28:45 17:30:04 11° 59° (ENE) 17:31:42 437.470
MOZHAYETS 4 28 Mar 17:40:02 17:43:49 25° 93° (E) 17:47:41
KKS-1 28 Mar 17:50:09 17:53:02 17° 295° (WNW) 17:55:46 437.445
JAS-2 28 Mar 17:50:32 17:57:06 49° 264° (W) 18:04:22 435.910
M-CUBED/EXP-1 PRIME 28 Mar 17:50:53 17:52:08 11° 91° (E) 17:53:42 437.505
AIST 1 28 Mar 18:01:10 18:02:08 10° 275° (W) 18:02:49
RS-15 28 Mar 18:13:22 18:17:34 14° 99° (E) 18:22:45 29.354- 29.394
STARS 28 Mar 18:25:50 18:27:18 11° 297° (WNW) 18:28:33 437.465
AO-7 28 Mar 18:44:48 18:50:27 19° 271° (W) 18:55:40 29.400- 29.500
SO-50 28 Mar 18:53:20 18:54:46 12° 108° (ESE) 18:56:28 436.795
AUBIESAT-1 28 Mar 18:59:18 19:04:01 51° 104° (ESE) 19:08:38 437.475
BEESAT 2 28 Mar 18:59:54 19:01:31 12° 38° (NE) 19:03:18 435.950
Cubesat XI-IV 28 Mar 19:03:54 19:09:16 80° 76° (ENE) 19:14:40 437.490
CUTE-I 28 Mar 19:04:01 19:09:22 79° 76° (ENE) 19:14:46 437.470
MOZHAYETS 4 28 Mar 19:16:56 19:21:06 32° 290° (WNW) 19:25:12
M-CUBED/EXP-1 PRIME 28 Mar 19:22:48 19:27:41 83° 288° (WNW) 19:32:29 437.505
CUBESAT XI-V 28 Mar 19:24:21 19:28:04 24° 93° (E) 19:31:50 437.345
BEESAT 3 28 Mar 19:36:52 19:40:23 27° 48° (NE) 19:43:53 437.485
HO-68 28 Mar 19:44:23 19:48:24 17° 55° (NE) 19:52:45 435.675
STRAND 1 28 Mar 19:48:27 19:52:26 23° 93° (E) 19:56:32 437.568
AIST 2 28 Mar 20:05:18 20:08:17 18° 43° (NE) 20:11:19 435.215
CANX-2 28 Mar 20:14:22 20:14:54 10° 63° (ENE) 20:15:40 2200.000
RS-15 28 Mar 20:17:23 20:28:07 70° 117° (ESE) 20:39:06 29.354- 29.394
GONETS M04 28 Mar 20:18:03 20:26:25 57° 91° (E) 20:34:56
CUTE 1.7 + AOD 2 28 Mar 20:26:59 20:28:53 13° 65° (ENE) 20:31:01 437.475
SO-50 28 Mar 20:30:03 20:34:40 79° 303° (WNW) 20:39:30 436.795
AUBIESAT-1 28 Mar 20:34:54 20:38:28 20° 300° (WNW) 20:41:54 437.475
BEESAT 2 28 Mar 20:36:13 20:40:23 87° 57° (ENE) 20:44:28 435.950
PRISM 28 Mar 20:36:49 20:41:00 70° 285° (WNW) 20:45:07 437.425
BRITE-PL 28 Mar 20:37:27 20:41:39 33° 72° (ENE) 20:45:40 437.365/2234.400
Cubesat XI-IV 28 Mar 20:47:40 20:50:07 13° 273° (W) 20:52:14 437.490
CUTE-I 28 Mar 20:47:43 20:50:12 13° 273° (W) 20:52:20 437.470
AAUSAT CUBESAT 2 28 Mar 20:54:24 20:56:48 16° 66° (ENE) 20:59:23 437.432
SEEDS 28 Mar 20:56:05 20:59:20 22° 69° (ENE) 21:02:41 437.485
M-CUBED/EXP-1 PRIME 28 Mar 21:00:04 21:01:52 12° 304° (NW) 21:03:25 437.505
CUBESAT XI-V 28 Mar 21:01:24 21:05:36 33° 290° (WNW) 21:09:41 437.345
CINEMA 3 28 Mar 21:09:22 21:11:44 15° 67° (ENE) 21:14:15 145.822/145.860
Oscar 11 28 Mar 21:13:47 21:15:36 13° 64° (ENE) 21:17:37 145.826/435.025
BEESAT 3 28 Mar 21:14:49 21:18:27 30° 245° (WSW) 21:21:59 437.485
CUSAT 1 28 Mar 21:16:00 21:16:28 10° 94° (E) 21:17:05 437.405
COMPASS 1 28 Mar 21:19:20 21:23:03 32° 71° (ENE) 21:26:50 437.405
DOVE 4 28 Mar 21:21:39 21:25:43 40° 73° (ENE) 21:29:42 437.250
STRAND 1 28 Mar 21:27:03 21:31:50 41° 290° (WNW) 21:36:34 437.568
CUBEBUG 2 28 Mar 21:27:43 21:29:32 13° 65° (ENE) 21:31:34 437.445
HO-68 28 Mar 21:28:01 21:35:10 81° 73° (ENE) 21:42:24 435.675
GOMX 1 28 Mar 21:28:20 21:32:52 74° 76° (ENE) 21:37:09 467.674
ZACube-1 28 Mar 21:36:15 21:36:58 10° 63° (ENE) 21:37:55 437.345
AIST 2 28 Mar 21:43:05 21:47:14 54° 242° (WSW) 21:51:18 435.215
CANX-2 28 Mar 21:46:04 21:50:18 76° 259° (W) 21:54:34 2200.000
DANDE 28 Mar 21:57:50 22:00:44 32° 98° (E) 22:03:16 436.750
CUTE 1.7 + AOD 2 28 Mar 22:00:14 22:04:23 57° 260° (W) 22:08:36 437.475
DELFI C3 28 Mar 22:12:54 22:16:42 40° 72° (ENE) 22:20:34 145.870
SO-50 28 Mar 22:13:32 22:16:07 14° 325° (NW) 22:18:36 436.795
GONETS M04 28 Mar 22:16:12 22:23:49 32° 292° (WNW) 22:31:17
BRITE-PL 28 Mar 22:16:26 22:20:16 23° 266° (W) 22:23:49 437.365/2234.400
UKube-1 28 Mar 22:18:03 22:21:33 25° 68° (ENE) 22:25:09 .
DX 1 28 Mar 22:26:44 22:30:37 32° 70° (ENE) 22:34:32 434.975-435.025
AAUSAT CUBESAT 2 28 Mar 22:28:06 22:32:07 46° 262° (W) 22:36:10 437.432
SEEDS 28 Mar 22:31:16 22:35:01 30° 264° (W) 22:38:46 437.485
HUMSAT D 28 Mar 22:31:18 22:34:23 21° 68° (ENE) 22:37:34 437.325/437.525
RS-15 28 Mar 22:31:22 22:41:26 39° 323° (NW) 22:51:38 29.354- 29.394
CINEMA 3 28 Mar 22:44:37 22:48:41 44° 262° (W) 22:52:40 145.822/145.860
Oscar 11 28 Mar 22:47:04 22:51:20 62° 259° (W) 22:55:38 145.826/435.025
COMPASS 1 28 Mar 22:55:40 22:58:52 20° 268° (W) 23:01:58 437.405
FUNcube-1 28 Mar 22:56:07 23:00:15 82° 76° (ENE) 23:04:26 145.935
CUSAT 1 28 Mar 22:57:13 22:59:10 16° 286° (WNW) 23:00:55 437.405
UWE-3 28 Mar 22:58:19 23:02:27 74° 258° (WSW) 23:06:37 435.000/436.395/437.385
DOVE 4 28 Mar 23:00:52 23:03:44 17° 268° (W) 23:06:24 437.250
CUBEBUG 2 28 Mar 23:01:47 23:05:52 54° 260° (W) 23:09:56 437.445
VELOX 1 28 Mar 23:03:22 23:07:22 34° 70° (ENE) 23:11:24 145.980
CUBEBUG 1 28 Mar 23:07:03 23:09:54 18° 66° (ENE) 23:12:54 437.445
AISAT 28 Mar 23:07:33 23:11:40 39° 71° (ENE) 23:15:49 437.250
ZACube-1 28 Mar 23:08:43 23:12:51 69° 259° (W) 23:17:00 437.345
UNISAT 6 28 Mar 23:08:59 23:11:09 13° 89° (E) 23:13:34 437.425
TIGRISAT 28 Mar 23:19:01 23:21:54 17° 91° (E) 23:24:59 435.000
HO-68 28 Mar 23:19:02 23:23:50 18° 272° (W) 23:28:16 435.675
50 SAT 28 Mar 23:25:46 23:29:36 58° 75° (ENE) 23:33:29 437.505
ESTCUBE 1 28 Mar 23:34:20 23:38:31 38° 71° (ENE) 23:42:45 437.505/2401.250
ANTELSAT 28 Mar 23:47:56 23:52:07 35° 97° (E) 23:56:24 437.575/2403.000
DELFI C3 28 Mar 23:49:33 23:52:08 16° 269° (W) 23:54:33 145.870
UKube-1 28 Mar 23:53:49 23:57:38 29° 264° (W) 00:01:24 .
QB50P1 28 Mar 23:55:56 23:59:03 20° 93° (E) 00:02:16 145.935-145.965
ISS 28 Mar 23:58:09 00:01:19 53° 140° (SE) 00:04:31 145.825
DUCHIFAT 1 28 Mar 23:58:12 00:01:22 21° 93° (E) 00:04:38 145.980
DX 1 29 Mar 00:03:28 00:06:57 22° 266° (W) 00:10:20 434.975-435.025
HUMSAT D 29 Mar 00:06:23 00:10:02 30° 265° (W) 00:13:39 437.325/437.525
QB50P2 29 Mar 00:10:02 00:13:45 30° 96° (E) 00:17:31 145.880/145.840
PCSat 29 Mar 00:15:37 00:20:23 31° 50° (NE) 00:25:11 145.827
YUBILEINY 29 Mar 00:15:56 00:21:20 18° 59° (ENE) 00:27:10 435.215
POPSAT HIP 1 29 Mar 00:38:40 00:42:52 62° 101° (E) 00:47:03 437.405
VELOX 1 29 Mar 00:40:32 00:44:02 22° 267° (W) 00:47:26 145.980
CUBEBUG 1 29 Mar 00:41:44 00:45:59 44° 261° (W) 00:50:12 437.445
BUGSAT 1 29 Mar 00:42:00 00:45:53 46° 99° (E) 00:49:47 437.445
UNISAT 6 29 Mar 00:43:51 00:48:22 60° 286° (WNW) 00:52:57 437.425
AISAT 29 Mar 00:45:13 00:48:28 19° 268° (W) 00:51:35 437.250
TISAT 1 29 Mar 00:46:02 00:50:00 43° 73° (ENE) 00:54:02 437.305
NANOSAT C BR1 29 Mar 00:49:34 00:53:49 83° 104° (ESE) 00:58:02 145.865
RS-15 29 Mar 00:50:21 00:58:11 21° 356° (N) 01:06:10 29.354- 29.394
POLYITAN 1 29 Mar 00:53:08 00:57:23 87° 284° (WNW) 01:01:39 437.675
SPROUT 29 Mar 00:53:30 00:57:44 62° 75° (ENE) 01:02:00 437.525
TIGRISAT 29 Mar 00:54:33 00:58:57 47° 287° (WNW) 01:03:23 435.000
ESTCUBE 1 29 Mar 01:12:05 01:15:34 21° 268° (W) 01:18:56 437.505/2401.250
SWISSCUBE 29 Mar 01:13:33 01:16:36 18° 64° (ENE) 01:19:50 437.505
BEESAT 29 Mar 01:16:40 01:19:42 17° 64° (ENE) 01:22:53 436.000
ANTELSAT 29 Mar 01:25:05 01:28:45 24° 292° (WNW) 01:32:24 437.575/2403.000
QB50P1 29 Mar 01:31:14 01:35:03 33° 289° (WNW) 01:38:49 145.935-145.965
DUCHIFAT 1 29 Mar 01:33:32 01:37:18 32° 289° (WNW) 01:41:01 145.980
ISS 29 Mar 01:35:09 01:37:54 24° 338° (NNW) 01:40:39 145.825
QB50P2 29 Mar 01:46:09 01:49:34 23° 292° (WNW) 01:52:53 145.880/145.840
PCSat 29 Mar 01:58:51 02:03:56 40° 248° (WSW) 02:08:56 145.827
ITUPSAT 1 29 Mar 02:01:20 02:05:54 45° 71° (ENE) 02:10:31 437.325
YUBILEINY 29 Mar 02:10:53 02:19:47 85° 83° (E) 02:28:35 435.215
POPSAT HIP 1 29 Mar 02:16:29 02:18:18 12° 296° (WNW) 02:19:56 437.405
BUGSAT 1 29 Mar 02:18:48 02:21:03 14° 294° (WNW) 02:23:09 437.445
Oscar 19 29 Mar 02:20:46 02:24:52 24° 93° (E) 02:29:05 437.125/150
TISAT 1 29 Mar 02:23:25 02:26:05 16° 269° (W) 02:28:35 437.305
SPROUT 29 Mar 02:32:50 02:34:19 11° 272° (W) 02:35:33 437.525
SWISSCUBE 29 Mar 02:49:23 02:54:06 54° 260° (W) 02:58:49 437.505
BEESAT 29 Mar 02:52:28 02:57:11 54° 260° (W) 03:01:54 436.000
RS-15 29 Mar 03:05:57 03:15:34 31° 30° (NNE) 03:25:44 29.354- 29.394
KKS-1 29 Mar 03:10:33 03:14:44 44° 72° (ENE) 03:18:59 437.445
ISS 29 Mar 03:13:33 03:15:10 13° 357° (N) 03:16:47 145.825
SO-50 29 Mar 03:22:15 03:25:17 16° 38° (NE) 03:28:27 436.795
ITAMSAT 1 29 Mar 03:24:39 03:29:11 30° 95° (E) 03:33:44 435.822/435.867
ITUPSAT 1 29 Mar 03:40:33 03:44:05 19° 268° (W) 03:47:27 437.325
STARS 29 Mar 03:43:46 03:48:05 64° 74° (ENE) 03:52:27 437.465
Oscar 19 29 Mar 03:59:33 04:04:24 41° 290° (WNW) 04:09:13 437.125/150
YUBILEINY 29 Mar 04:09:42 04:15:36 19° 280° (W) 04:21:01 435.215
Gurwin Techsat 1B 29 Mar 04:09:50 04:15:09 67° 101° (ESE) 04:20:26 435.225
M-CUBED/EXP-1 PRIME 29 Mar 04:39:14 04:41:12 14° 57° (ENE) 04:43:25 437.505
MOZHAYETS 4 29 Mar 04:42:11 04:45:50 24° 68° (ENE) 04:49:36
KKS-1 29 Mar 04:48:41 04:51:39 17° 269° (W) 04:54:29 437.445
AIST 1 29 Mar 04:50:06 04:54:07 37° 92° (E) 04:58:12
ISS 29 Mar 04:50:07 04:52:31 19° 18° (NNE) 04:54:56 145.825
AO-7 29 Mar 04:50:32 04:57:23 29° 94° (E) 05:04:28 29.400- 29.500
O/OREOS (USA 219) 29 Mar 04:52:10 04:56:29 43° 107° (ESE) 05:00:52 437.305
JAS-2 29 Mar 05:00:35 05:07:15 32° 91° (E) 05:13:35 435.910
SO-50 29 Mar 05:01:36 05:06:35 89° 27° (NNE) 05:11:32 436.795
ITAMSAT 1 29 Mar 05:04:03 05:08:41 33° 292° (WNW) 05:13:13 435.822/435.867
HORYU 2 29 Mar 05:14:17 05:18:48 70° 103° (ESE) 05:23:18 437.375
RS-15 29 Mar 05:18:25 05:30:00 84° 57° (ENE) 05:42:04 29.354- 29.394
STARS 29 Mar 05:23:36 05:25:05 11° 272° (W) 05:26:18 437.465
VERMONT LUNAR 29 Mar 05:43:25 05:45:02 13° 148° (SSE) 05:46:45 437.305
AUBIESAT-1 29 Mar 05:47:30 05:51:27 61° 69° (ENE) 05:55:46 437.475
Gurwin Techsat 1B 29 Mar 05:51:14 05:54:39 17° 297° (WNW) 05:57:50 435.225
M-CUBED/EXP-1 PRIME 29 Mar 06:11:36 06:15:32 63° 255° (WSW) 06:19:52 437.505
MOZHAYETS 4 29 Mar 06:18:43 06:22:56 34° 264° (W) 06:27:09
PHONESAT 2.4 29 Mar 06:20:36 06:21:46 11° 147° (SSE) 06:23:01 2401.200-2431.200
ISS 29 Mar 06:26:03 06:29:18 88° 47° (NE) 06:32:31 145.825
CUBESAT XI-V 29 Mar 06:27:51 06:31:36 25° 68° (ENE) 06:35:27 437.345
GONETS M04 29 Mar 06:28:38 06:35:52 28° 66° (ENE) 06:43:20
AIST 1 29 Mar 06:28:46 06:31:58 19° 289° (WNW) 06:35:04
O/OREOS (USA 219) 29 Mar 06:32:39 06:36:09 21° 305° (NW) 06:39:34 437.305
AO-7 29 Mar 06:42:36 06:50:45 62° 293° (WNW) 06:58:52 29.400- 29.500
JAS-2 29 Mar 06:45:05 06:52:39 54° 291° (WNW) 06:59:36 435.910
SO-50 29 Mar 06:45:06 06:46:31 11° 252° (WSW) 06:47:37 436.795
HORYU 2 29 Mar 06:52:58 06:54:57 12° 297° (WNW) 06:56:43 437.375
STRAND 1 29 Mar 07:04:06 07:08:41 34° 69° (ENE) 07:13:20 437.568
VERMONT LUNAR 29 Mar 07:19:04 07:22:18 47° 163° (SSE) 07:25:32 437.305
CUTE-I 29 Mar 07:21:40 07:26:20 31° 95° (E) 07:31:03 437.470
Cubesat XI-IV 29 Mar 07:21:43 07:26:25 31° 95° (E) 07:31:09 437.490
AUBIESAT-1 29 Mar 07:25:25 07:26:54 11° 269° (W) 07:28:10 437.475
PRISM 29 Mar 07:26:42 07:30:55 85° 76° (ENE) 07:35:10 437.425
RS-15 29 Mar 07:32:14 07:41:26 27° 255° (WSW) 07:50:23 29.354- 29.394
CUSAT 1 29 Mar 07:48:52 07:51:33 16° 73° (ENE) 07:54:53 437.405
PHONESAT 2.4 29 Mar 07:56:14 07:59:36 42° 160° (SSE) 08:02:57 2401.200-2431.200
CUBESAT XI-V 29 Mar 08:04:35 08:08:55 34° 264° (W) 08:13:12 437.345
GONETS M04 29 Mar 08:24:45 08:33:29 65° 267° (W) 08:42:08
JAS-2 29 Mar 08:33:31 08:36:03 12° 310° (NW) 08:38:07 435.910
DANDE 29 Mar 08:35:08 08:38:44 33° 78° (ENE) 08:43:28 436.750
AO-7 29 Mar 08:37:53 08:42:05 15° 313° (NW) 08:45:52 29.400- 29.500
STRAND 1 29 Mar 08:43:28 08:47:56 29° 265° (W) 08:52:21 437.568
VERMONT LUNAR 29 Mar 08:56:33 08:59:54 83° 180° (S) 09:03:17 437.305
HO-68 29 Mar 08:58:16 09:01:40 14° 86° (E) 09:05:32 435.675
CUTE-I 29 Mar 09:01:40 09:06:26 33° 292° (WNW) 09:11:07 437.470
Cubesat XI-IV 29 Mar 09:01:46 09:06:32 33° 292° (WNW) 09:11:12 437.490
DOVE 4 29 Mar 09:22:51 09:23:31 10° 88° (E) 09:24:30 437.250
CUSAT 1 29 Mar 09:30:11 09:34:20 48° 262° (W) 09:39:49 437.405
GOMX 1 29 Mar 09:30:30 09:33:35 20° 93° (E) 09:36:54 467.674
CANX-2 29 Mar 09:32:25 09:35:27 19° 92° (E) 09:38:36 2200.000
PHONESAT 2.4 29 Mar 09:34:16 09:37:48 82° 178° (S) 09:41:21 2401.200-2431.200
